New York JFK, NY

4:51 PM EDT on June 24, 2017 (GMT -0400)
Kennedy International

Weather History for KJFK - February, 2014

Change the Weather History Date:

Friday, February 21, 2014

  Actual Average Record
Temperature  
Mean Temperature 41 °F 36 °F  
Max Temperature 47 °F 43 °F 63 °F (2002)
Min Temperature 35 °F 29 °F 5 °F (1968)
Degree Days  
Heating Degree Days 24 29  
Month to date heating degree days 714 644  
Since 1 July heating degree days 3480 3314  
Cooling Degree Days 0 0  
Month to date cooling degree days 0 0  
Year to date cooling degree days 0 0  
Moisture  
Dew Point 38 °F    
Average Humidity 85    
Maximum Humidity 100    
Minimum Humidity 70    
Precipitation  
Precipitation 0.14 in 0.09 in 1.34 in (1989)
Month to date precipitation 4.54 1.88  
Year to date precipitation 7.55 5.04  
Snow  
Snow 0.00 in 0.30 in 4.50 in (2015)
Month to date snowfall 20.5 6.4  
Since 1 July snowfall 44.4 17.6  
Snow Depth 3.00 in    
Sea Level Pressure  
Sea Level Pressure 29.87 in    
Wind  
Wind Speed 10 mph (NE)    
Max Wind Speed 28 mph    
Max Gust Speed 37 mph    
Visibility 3 miles    
Events Fog , Rain    
T = Trace of Precipitation, MM = Missing Value Source: NWS Daily Summary

Daily Weather History Graph

Daily Weather History Graph

Search for Another Location

Airport or City:

Trip Planner

Search our weather history database for the weather conditions in past years. The results will help you decide how hot, cold, wet, or windy it might be!

Date:

Astronomy

Feb. 21, 2014 Rise Set
Actual Time 6:40 AM EST 5:37 PM EST
Civil Twilight 6:13 AM EST 6:04 PM EST
Nautical Twilight 5:41 AM EST 6:36 PM EST
Astronomical Twilight 5:09 AM EST 7:08 PM EST
Moon No Moon Rise 10:01 AM EST (2/21)
Length of Visible Light 11h 51m
Length of Day
10h 56m
Waning Gibbous, 61% of the Moon is Illuminated
Feb 21
Waning Gibbous
Feb 22
Last Quarter
Mar 1
New
Mar 8
First Quarter
Mar 16
Full

Hourly Weather History & Observations

Time (EST) Temp. Windchill Dew Point Humidity Pressure Visibility Wind Dir Wind Speed Gust Speed Precip Events Conditions
12:37 AM 37.4 °F 30.3 °F 35.6 °F 93% 30.02 in 5.0 mi NE 10.4 mph - N/A   Overcast
12:51 AM 37.0 °F 30.4 °F 35.1 °F 93% 30.02 in 5.0 mi NE 9.2 mph - N/A   Overcast
1:34 AM 37.4 °F 31.4 °F 35.6 °F 93% 30.01 in 1.0 mi NE 8.1 mph - N/A   Overcast
1:51 AM 37.0 °F 31.0 °F 35.1 °F 93% 30.00 in 0.5 mi NE 8.1 mph - N/A   Overcast
2:51 AM 37.9 °F 34.4 °F 37.0 °F 97% 29.98 in 0.5 mi NE 4.6 mph - N/A   Overcast
3:17 AM 37.4 °F 32.8 °F 35.6 °F 93% 29.98 in 0.1 mi NE 5.8 mph - N/A Fog Fog
3:51 AM 37.9 °F 34.4 °F 36.0 °F 93% 29.96 in 0.1 mi NNE 4.6 mph - N/A Fog Fog
4:44 AM 37.4 °F 32.1 °F 35.6 °F 93% 29.97 in 0.1 mi NNE 6.9 mph - N/A Fog Fog
4:51 AM 37.9 °F 31.5 °F 36.0 °F 93% 29.96 in 0.1 mi NE 9.2 mph - N/A Fog Fog
5:51 AM 37.9 °F 32.7 °F 36.0 °F 93% 29.96 in 0.1 mi NNE 6.9 mph - 0.01 in   Light Drizzle
6:51 AM 37.9 °F 33.5 °F 36.0 °F 93% 29.96 in 0.1 mi NE 5.8 mph - 0.00 in   Light Drizzle
7:51 AM 37.0 °F 29.3 °F 35.1 °F 93% 29.94 in 0.1 mi ENE 11.5 mph - 0.01 in   Light Drizzle
8:51 AM 37.9 °F 32.7 °F 36.0 °F 93% 29.95 in 0.5 mi NE 6.9 mph - 0.01 in   Light Drizzle
9:45 AM 37.4 °F 30.3 °F 37.4 °F 100% 29.90 in 0.0 mi ENE 10.4 mph - 0.00 in Fog Light Drizzle
9:51 AM 37.9 °F 31.5 °F 37.0 °F 97% 29.91 in 0.0 mi ENE 9.2 mph - 0.00 in Fog Light Drizzle
10:51 AM 39.0 °F 34.8 °F 37.0 °F 93% 29.89 in 0.0 mi NE 5.8 mph - 0.00 in Fog Light Drizzle
11:51 AM 42.1 °F 40.2 °F 41.0 °F 96% 29.84 in 0.0 mi East 3.5 mph - 0.00 in Fog Light Drizzle
12:22 PM 44.6 °F 42.2 °F 42.8 °F 93% 29.80 in 0.0 mi SSE 4.6 mph - 0.01 in Fog Light Drizzle
12:51 PM 44.1 °F 39.0 °F 43.0 °F 96% 29.76 in 0.0 mi South 9.2 mph - 0.01 in Fog Light Drizzle
1:51 PM 45.0 °F 36.4 °F 44.1 °F 97% 29.72 in 0.0 mi South 23.0 mph 29.9 mph 0.00 in Fog Fog
2:51 PM 45.0 °F 36.2 °F 44.1 °F 97% 29.70 in 0.0 mi South 24.2 mph 29.9 mph N/A Fog Fog
3:30 PM 44.6 °F 35.9 °F 42.8 °F 93% 29.70 in 0.0 mi South 23.0 mph 31.1 mph 0.02 in Fog , Rain Rain
3:38 PM 44.6 °F 36.1 °F 42.8 °F 93% 29.69 in 0.0 mi South 21.9 mph - 0.04 in Fog , Rain Rain
3:51 PM 45.0 °F 36.6 °F 43.0 °F 93% 29.67 in 0.0 mi South 21.9 mph - 0.07 in Rain Light Rain
4:07 PM 44.6 °F 36.1 °F 44.6 °F 100% 29.69 in 3.0 mi South 21.9 mph 31.1 mph 0.00 in Rain Light Rain
4:33 PM 46.4 °F 39.5 °F 44.6 °F 93% 29.72 in 5.0 mi WNW 17.3 mph - 0.01 in   Mostly Cloudy
4:51 PM 46.0 °F 39.6 °F 44.1 °F 93% 29.76 in 9.0 mi West 15.0 mph - 0.01 in   Overcast
5:44 PM 44.6 °F 39.2 °F 41.0 °F 87% 29.78 in 10.0 mi WNW 10.4 mph - 0.01 in   Overcast
5:51 PM 46.9 °F - 42.1 °F 83% 29.78 in 10.0 mi WNW 9.2 mph - 0.01 in   Overcast
6:51 PM 41.0 °F 34.7 °F 37.9 °F 89% 29.81 in 10.0 mi WSW 10.4 mph - N/A   Mostly Cloudy
7:51 PM 44.1 °F 38.1 °F 39.0 °F 82% 29.84 in 10.0 mi West 11.5 mph - N/A   Mostly Cloudy
8:51 PM 43.0 °F 36.8 °F 35.1 °F 74% 29.86 in 10.0 mi West 11.5 mph - N/A   Scattered Clouds
9:51 PM 42.1 °F 36.6 °F 34.0 °F 73% 29.90 in 10.0 mi West 9.2 mph - N/A   Partly Cloudy
10:51 PM 41.0 °F 34.7 °F 33.1 °F 73% 29.91 in 10.0 mi WSW 10.4 mph - N/A   Clear
11:51 PM 37.0 °F 32.4 °F 32.0 °F 82% 29.94 in 10.0 mi WSW 5.8 mph - N/A   Clear